TEVEL2-1

Last updated on Sun Jun 21 2026 00:03:20 GMT+0000 (Coordinated Universal Time)

1 63217U 25052H 26171.17964496 .00015594 00000+0 47659-3 0 9993 2 63217 97.3873 67.1285 0004873 107.5627 252.6148 15.33952529 70556
UTC large
Height (km)
Speed (km/s)
/
Latitude / Longitude
Inclination (degrees)
Orbital Period (minutes)
Azimuth
Elevation
Range (km)
Doppler Factor

Next 0 passes for location: London (51.5072 / 0.1276)

No passes found over London.
TEVEL2-1